Weather History for Harrisburg, PA

Change the Weather History Date:

Friday, January 25, 2013

  Actual Average Record
Temperature  
Mean Temperature 16 °F -  
Max Temperature 19 °F 34 °F 71 °F (1967)
Min Temperature 14 °F 20 °F 0 °F (1936)
Degree Days  
Heating Degree Days 48    
Moisture  
Dew Point 9 °F    
Average Humidity 72    
Maximum Humidity 91    
Minimum Humidity 42    
Precipitation  
Precipitation 0.05 in - - ()
Sea Level Pressure  
Sea Level Pressure 30.24 in    
Wind  
Wind Speed 4 mph (South)    
Max Wind Speed 9 mph    
Max Gust Speed -    
Visibility 5 miles    
Events Fog , Snow    
Averages and records for this station are not official NWS values.
T = Trace of Precipitation, MM = Missing Value Source: NWS Daily Summary

Daily Weather History Graph

Daily Weather History Graph

Search for Another Location

Airport:

Trip Planner

Search our weather history database for the weather conditions in past years. The results will help you decide how hot, cold, wet, or windy it might be!

Date:

Astronomy

Jan. 25, 2013 Rise Set
Actual Time 7:22 AM EST 5:18 PM EST
Civil Twilight 6:52 AM EST 5:47 PM EST
Nautical Twilight 6:20 AM EST 6:20 PM EST
Astronomical Twilight 5:47 AM EST 6:52 PM EST
Moon 4:13 PM EST (1/25) 6:00 AM EST (1/25)
Length of Visible Light 10h 54m
Length of Day
9h 55m
Waxing Gibbous, 98% of the Moon is Illuminated
Jan 25
Waxing Gibbous
Jan 26
Full
Feb 3
Last Quarter
Feb 10
New
Feb 17
First Quarter

Hourly Weather History & Observations

Time (EST) Temp. Windchill Dew Point Humidity Pressure Visibility Wind Dir Wind Speed Gust Speed Precip Events Conditions
12:56 AM 16.0 °F 7.4 °F -0.9 °F 47% 30.51 in 10.0 mi NW 5.8 mph - N/A   Clear
1:56 AM 16.0 °F 7.4 °F -0.9 °F 47% 30.51 in 10.0 mi SW 5.8 mph - N/A   Clear
2:56 AM 15.1 °F 5.2 °F -0.9 °F 49% 30.50 in 10.0 mi NNW 6.9 mph - N/A   Clear
3:56 AM 14.0 °F 8.2 °F 1.0 °F 56% 30.51 in 10.0 mi West 3.5 mph - N/A   Clear
4:56 AM 15.1 °F 9.4 °F -0.0 °F 51% 30.49 in 10.0 mi WNW 3.5 mph - N/A   Clear
5:56 AM 16.0 °F 8.8 °F -0.0 °F 49% 30.47 in 10.0 mi WNW 4.6 mph - N/A   Clear
6:56 AM 16.0 °F 6.3 °F -0.0 °F 49% 30.46 in 10.0 mi NW 6.9 mph - N/A   Clear
7:56 AM 16.0 °F 8.8 °F -0.9 °F 47% 30.45 in 10.0 mi WNW 4.6 mph - N/A   Clear
8:56 AM 17.1 °F 11.7 °F -0.0 °F 47% 30.44 in 10.0 mi West 3.5 mph - N/A   Mostly Cloudy
9:56 AM 17.1 °F 11.7 °F -0.0 °F 47% 30.40 in 10.0 mi SE 3.5 mph - N/A   Overcast
10:56 AM 18.0 °F - 1.0 °F 48% 30.40 in 10.0 mi Calm Calm - N/A   Overcast
11:56 AM 19.0 °F - 1.0 °F 46% 30.36 in 10.0 mi Calm Calm - N/A   Overcast
12:56 PM 19.9 °F 13.4 °F -0.0 °F 42% 30.29 in 10.0 mi South 4.6 mph - N/A   Overcast
1:49 PM 19.4 °F 8.6 °F 8.6 °F 63% 30.21 in 1.8 mi SSE 9.2 mph - 0.00 in Snow Light Snow
1:56 PM 18.0 °F 11.1 °F 9.0 °F 68% 30.23 in 1.5 mi South 4.6 mph - 0.00 in Snow Light Snow
2:11 PM 17.6 °F 9.3 °F 10.4 °F 73% 30.22 in 1.2 mi SSE 5.8 mph - 0.00 in Snow Light Snow
2:25 PM 17.6 °F 10.7 °F 12.2 °F 79% 30.21 in 0.8 mi SSE 4.6 mph - 0.00 in Snow Light Snow
2:36 PM 17.6 °F 12.3 °F 12.2 °F 79% 30.20 in 0.8 mi ESE 3.5 mph - 0.00 in Snow Light Snow
2:56 PM 18.0 °F 8.7 °F 14.0 °F 84% 30.19 in 0.5 mi ESE 6.9 mph - 0.01 in Fog , Snow Snow
3:11 PM 17.6 °F 9.3 °F 14.0 °F 86% 30.17 in 1.0 mi ESE 5.8 mph - 0.00 in Snow Light Snow
3:27 PM 19.4 °F 9.5 °F 15.8 °F 86% 30.16 in 0.8 mi SE 8.1 mph - 0.01 in Snow Light Snow
3:41 PM 19.4 °F 9.5 °F 15.8 °F 86% 30.15 in 0.5 mi SE 8.1 mph - 0.01 in Fog , Snow Snow
3:56 PM 19.0 °F 10.0 °F 15.1 °F 85% 30.17 in 0.8 mi SSE 6.9 mph - 0.01 in Snow Light Snow
4:56 PM 19.0 °F 9.0 °F 14.0 °F 81% 30.16 in 1.2 mi SSW 8.1 mph - 0.03 in Snow Light Snow
5:04 PM 19.4 °F 12.8 °F 14.0 °F 80% 30.14 in 1.5 mi South 4.6 mph - 0.00 in Snow Light Snow
5:35 PM 17.6 °F 12.3 °F 14.0 °F 86% 30.13 in 2.5 mi SSE 3.5 mph - 0.00 in Snow Light Snow
5:48 PM 17.6 °F 12.3 °F 14.0 °F 86% 30.13 in 3.0 mi South 3.5 mph - 0.00 in Snow Light Snow
5:56 PM 18.0 °F - 14.0 °F 84% 30.15 in 2.5 mi Calm Calm - 0.00 in Snow Light Snow
6:07 PM 17.6 °F - 14.0 °F 86% 30.12 in 3.0 mi Calm Calm - 0.00 in Snow Light Snow
6:56 PM 17.1 °F - 14.0 °F 88% 30.14 in 4.0 mi Calm Calm - 0.00 in Snow Light Snow
7:56 PM 17.1 °F 11.7 °F 12.9 °F 84% 30.12 in 9.0 mi ESE 3.5 mph - 0.00 in   Overcast
8:54 PM 15.8 °F - 12.2 °F 86% 30.07 in 7.0 mi Calm Calm - N/A   Overcast
8:56 PM 15.1 °F - 12.0 °F 88% 30.10 in 6.0 mi Calm Calm - N/A   Overcast
9:16 PM 15.8 °F - 12.2 °F 86% 30.07 in 2.5 mi Calm Calm - 0.00 in Snow Light Snow
9:28 PM 15.8 °F - 12.2 °F 86% 30.07 in 3.0 mi Calm Calm - 0.00 in   Overcast
9:56 PM 16.0 °F - 12.9 °F 88% 30.10 in 6.0 mi Calm Calm - 0.00 in   Overcast
10:46 PM 15.8 °F - 12.2 °F 86% 30.07 in 5.0 mi Calm Calm - N/A   Overcast
10:56 PM 15.1 °F - 12.9 °F 91% 30.09 in 4.0 mi Calm Calm - N/A   Overcast
11:21 PM 15.8 °F - 12.2 °F 86% 30.08 in 5.0 mi Calm Calm - N/A   Overcast
11:44 PM 15.8 °F 10.2 °F 12.2 °F 86% 30.09 in 7.0 mi WSW 3.5 mph - N/A   Overcast
11:56 PM 15.1 °F 9.4 °F 12.9 °F 91% 30.11 in 6.0 mi SSW 3.5 mph - N/A   Overcast